TimeCDT,TemperatureF,Dew PointF,Humidity,Sea Level PressureIn,VisibilityMPH,Wind Direction,Wind SpeedMPH,Gust SpeedMPH,PrecipitationIn,Events,Conditions,WindDirDegrees,DateUTC
12:52 AM,46.9,37.9,71,30.19,10.0,North,16.1,23.0,N/A,,Clear,360,2013-05-02 05:52:00
1:52 AM,46.0,37.0,71,30.19,10.0,North,12.7,25.3,N/A,,Clear,360,2013-05-02 06:52:00
2:52 AM,45.0,36.0,71,30.19,10.0,NNE,16.1,24.2,N/A,,Mostly Cloudy,20,2013-05-02 07:52:00
3:52 AM,45.0,36.0,71,30.21,10.0,North,17.3,24.2,N/A,,Mostly Cloudy,360,2013-05-02 08:52:00
4:52 AM,45.0,36.0,71,30.21,10.0,North,12.7,23.0,N/A,,Mostly Cloudy,360,2013-05-02 09:52:00
5:42 AM,44.6,35.6,71,30.25,10.0,NNW,12.7,24.2,0.00,,Overcast,330,2013-05-02 10:42:00
5:52 AM,45.0,36.0,71,30.25,10.0,North,18.4,24.2,0.00,,Overcast,350,2013-05-02 10:52:00
6:22 AM,44.6,35.6,71,30.25,10.0,North,12.7,26.5,N/A,,Overcast,350,2013-05-02 11:22:00
6:52 AM,43.0,36.0,76,30.25,10.0,North,18.4,25.3,N/A,,Overcast,360,2013-05-02 11:52:00
7:39 AM,42.8,35.6,76,30.28,10.0,North,18.4,24.2,N/A,,Overcast,350,2013-05-02 12:39:00
7:52 AM,43.0,36.0,76,30.30,10.0,North,17.3,24.2,N/A,,Overcast,360,2013-05-02 12:52:00
8:52 AM,42.1,36.0,79,30.31,10.0,North,17.3,23.0,N/A,,Overcast,360,2013-05-02 13:52:00
9:52 AM,43.0,37.0,80,30.29,10.0,North,13.8,24.2,N/A,,Overcast,360,2013-05-02 14:52:00
10:52 AM,43.0,36.0,76,30.30,10.0,North,17.3,24.2,N/A,,Overcast,350,2013-05-02 15:52:00
11:52 AM,43.0,36.0,76,30.32,10.0,NNW,15.0,20.7,N/A,,Overcast,340,2013-05-02 16:52:00
12:52 PM,43.0,36.0,76,30.32,10.0,North,17.3,24.2,N/A,,Overcast,10,2013-05-02 17:52:00
1:17 PM,42.8,35.6,76,30.31,10.0,NNW,17.3,21.9,N/A,,Overcast,340,2013-05-02 18:17:00
1:52 PM,41.0,37.0,86,30.33,8.0,NNW,16.1,21.9,N/A,,Overcast,340,2013-05-02 18:52:00
2:52 PM,41.0,36.0,82,30.32,10.0,NNW,19.6,26.5,N/A,,Overcast,340,2013-05-02 19:52:00
3:52 PM,41.0,34.0,76,30.30,10.0,NNW,18.4,26.5,N/A,,Overcast,330,2013-05-02 20:52:00
4:23 PM,41.0,33.8,76,30.28,10.0,North,18.4,26.5,N/A,,Overcast,350,2013-05-02 21:23:00
4:52 PM,41.0,33.1,73,30.29,10.0,North,19.6,31.1,N/A,,Overcast,350,2013-05-02 21:52:00
5:52 PM,39.9,33.1,77,30.28,10.0,NNW,13.8,29.9,N/A,,Overcast,340,2013-05-02 22:52:00
6:31 PM,37.4,37.4,100,30.27,7.0,North,18.4,24.2,0.06,Rain,Rain,350,2013-05-02 23:31:00
6:48 PM,37.4,37.4,100,30.26,7.0,North,19.6,27.6,0.06,Snow,Light Snow,360,2013-05-02 23:48:00
6:52 PM,37.9,37.0,97,30.27,7.0,North,20.7,29.9,0.07,Snow,Light Snow,360,2013-05-02 23:52:00
7:24 PM,37.4,37.4,100,30.28,9.0,NNW,16.1,24.2,0.01,Rain,Light Rain,340,2013-05-03 00:24:00
7:52 PM,37.0,37.0,100,30.30,5.0,North,13.8,21.9,0.06,Rain,Rain,350,2013-05-03 00:52:00
8:52 PM,37.0,36.0,96,30.28,10.0,North,19.6,27.6,0.04,,Overcast,360,2013-05-03 01:52:00
9:52 PM,37.0,36.0,96,30.28,10.0,North,18.4,25.3,0.01,,Overcast,360,2013-05-03 02:52:00
10:52 PM,36.0,36.0,100,30.28,8.0,North,15.0,23.0,0.03,Rain,Rain,10,2013-05-03 03:52:00
11:52 PM,36.0,36.0,100,30.26,6.0,North,12.7,-,0.01,Snow,Light Snow,350,2013-05-03 04:52:00